| time (UTC) | temp C | wind direction | speed KPH | gust KPH | rain 1hr cm | rain 24hr cm | rain mn cm | humidity % | barometer mb |
| 20260510060035 | 6 | 14 | 3.2 | 6.4 | 0.00 | 0.10 | 0.00 | 85 | 1021.7 |
| 20260510054526 | 6 | 352 | 3.2 | 8.0 | 0.00 | 0.10 | 0.10 | 84 | 1021.7 |
| 20260510053010 | 6 | 17 | 3.2 | 6.4 | 0.00 | 0.10 | 0.10 | 83 | 1021.6 |
| 20260510051516 | 6 | 2 | 3.2 | 6.4 | 0.00 | 0.10 | 0.10 | 82 | 1021.5 |
| 20260510050023 | 7 | 27 | 3.2 | 8.0 | 0.00 | 0.10 | 0.10 | 79 | 1021.6 |
| 20260510044525 | 8 | 6 | 3.2 | 6.4 | 0.00 | 0.10 | 0.10 | 74 | 1021.5 |
| 20260510043030 | 9 | 4 | 1.6 | 3.2 | 0.00 | 0.10 | 0.10 | 73 | 1021.5 |
| 20260510040018 | 10 | 121 | 0.0 | 1.6 | 0.00 | 0.10 | 0.10 | 70 | 1021.4 |
| 20260510034524 | 10 | 117 | 0.0 | 6.4 | 0.00 | 0.10 | 0.10 | 68 | 1021.1 |
| 20260510033027 | 10 | 128 | 0.0 | 4.8 | 0.00 | 0.10 | 0.10 | 67 | 1021.0 |
| 20260510031531 | 11 | 83 | 3.2 | 8.0 | 0.00 | 0.10 | 0.10 | 66 | 1020.6 |
| 20260510030017 | 11 | 53 | 4.8 | 9.7 | 0.00 | 0.10 | 0.10 | 62 | 1020.4 |
| 20260510024521 | 12 | 358 | 3.2 | 8.0 | 0.00 | 0.10 | 0.10 | 60 | 1020.4 |
| 20260510023022 | 12 | 46 | 3.2 | 6.4 | 0.00 | 0.10 | 0.10 | 56 | 1020.2 |
| 20260510021558 | 13 | 48 | 3.2 | 9.7 | 0.00 | 0.10 | 0.10 | 56 | 1020.1 |
| 20260510020028 | 13 | 350 | 3.2 | 4.8 | 0.00 | 0.10 | 0.10 | 57 | 1020.0 |
| 20260510013018 | 15 | 25 | 0.0 | 1.6 | 0.00 | 0.10 | 0.10 | 44 | 1019.8 |
| 20260510011504 | 15 | 12 | 0.0 | 1.6 | 0.00 | 0.10 | 0.10 | 46 | 1019.7 |
| 20260510010021 | 15 | 22 | 3.2 | 4.8 | 0.00 | 0.10 | 0.10 | 45 | 1019.8 |
| 20260510004515 | 16 | 29 | 3.2 | 6.4 | 0.00 | 0.10 | 0.10 | 43 | 1019.9 |
| 20260510003023 | 16 | 2 | 3.2 | 8.0 | 0.00 | 0.10 | 0.10 | 41 | 1019.8 |
| 20260510001520 | 16 | 326 | 3.2 | 8.0 | 0.00 | 0.10 | 0.10 | 41 | 1019.7 |
| 20260510000008 | 16 | 315 | 3.2 | 8.0 | 0.00 | 0.10 | 0.10 | 42 | 1019.7 |
| 20260509234525 | 16 | 302 | 4.8 | 9.7 | 0.00 | 0.10 | 0.10 | 44 | 1019.6 |
| 20260509233017 | 16 | 10 | 0.0 | 11.3 | 0.00 | 0.10 | 0.10 | 42 | 1019.6 |
| 20260509231522 | 16 | 57 | 3.2 | 8.0 | 0.00 | 0.10 | 0.10 | 42 | 1019.6 |
| 20260509230031 | 16 | 265 | 1.6 | 11.3 | 0.00 | 0.10 | 0.10 | 45 | 1019.6 |
| 20260509224507 | 16 | 300 | 6.4 | 12.9 | 0.00 | 0.10 | 0.10 | 44 | 1019.7 |
| 20260509223012 | 16 | 37 | 6.4 | 11.3 | 0.00 | 0.10 | 0.10 | 45 | 1019.7 |
| 20260509221516 | 16 | 53 | 4.8 | 14.5 | 0.00 | 0.10 | 0.10 | 47 | 1019.8 |
| 20260509220021 | 15 | 306 | 4.8 | 12.9 | 0.00 | 0.10 | 0.10 | 50 | 1019.8 |
| 20260509214526 | 15 | 37 | 6.4 | 16.1 | 0.00 | 0.10 | 0.10 | 51 | 1020.1 |
| 20260509213013 | 14 | 335 | 8.0 | 17.7 | 0.00 | 0.10 | 0.10 | 52 | 1020.1 |
| 20260509211515 | 13 | 326 | 6.4 | 11.3 | 0.00 | 0.10 | 0.10 | 52 | 1020.2 |
| 20260509210020 | 13 | 304 | 4.8 | 9.7 | 0.00 | 0.10 | 0.10 | 56 | 1020.2 |
| 20260509204525 | 13 | 326 | 8.0 | 12.9 | 0.00 | 0.10 | 0.10 | 55 | 1020.2 |
| 20260509203027 | 13 | 344 | 4.8 | 14.5 | 0.00 | 0.10 | 0.10 | 57 | 1020.0 |
| 20260509201516 | 13 | 49 | 6.4 | 12.9 | 0.00 | 0.10 | 0.10 | 56 | 1019.9 |
| 20260509200019 | 12 | 12 | 8.0 | 12.9 | 0.00 | 0.10 | 0.10 | 58 | 1019.9 |
| 20260509194532 | 12 | 337 | 6.4 | 12.9 | 0.00 | 0.10 | 0.10 | 63 | 1019.9 |
| 20260509193025 | 12 | 326 | 8.0 | 12.9 | 0.00 | 0.10 | 0.10 | 63 | 1019.9 |
| 20260509191528 | 12 | 331 | 8.0 | 11.3 | 0.03 | 0.10 | 0.10 | 65 | 1019.9 |
| 20260509190019 | 12 | 358 | 6.4 | 11.3 | 0.03 | 0.10 | 0.10 | 64 | 1019.9 |
| 20260509184519 | 11 | 357 | 6.4 | 11.3 | 0.03 | 0.10 | 0.10 | 67 | 1019.9 |
| 20260509183021 | 11 | 276 | 4.8 | 11.3 | 0.03 | 0.10 | 0.10 | 70 | 1019.7 |
| 20260509181525 | 11 | 333 | 8.0 | 12.9 | 0.00 | 0.08 | 0.08 | 72 | 1019.7 |
| 20260509180027 | 11 | 31 | 3.2 | 9.7 | 0.00 | 0.08 | 0.08 | 73 | 1019.6 |
| 20260509174527 | 11 | 336 | 6.4 | 9.7 | 0.03 | 0.08 | 0.08 | 75 | 1019.5 |
| 20260509173029 | 10 | 347 | 4.8 | 11.3 | 0.03 | 0.08 | 0.08 | 77 | 1019.4 |
| 20260509171531 | 10 | 5 | 4.8 | 8.0 | 0.05 | 0.08 | 0.08 | 81 | 1019.4 |
| 20260509170026 | 9 | 351 | 6.4 | 11.3 | 0.08 | 0.08 | 0.08 | 83 | 1019.4 |
| 20260509164509 | 8 | 6 | 6.4 | 16.1 | 0.05 | 0.05 | 0.05 | 85 | 1019.5 |
| 20260509163010 | 8 | 349 | 8.0 | 16.1 | 0.05 | 0.05 | 0.05 | 84 | 1019.3 |
| 20260509161506 | 8 | 342 | 6.4 | 14.5 | 0.03 | 0.03 | 0.03 | 84 | 1019.2 |
| 20260509160008 | 8 | 352 | 8.0 | 19.3 | 0.00 | 0.00 | 0.00 | 81 | 1019.0 |
| 20260509154508 | 9 | 345 | 8.0 | 12.9 | 0.00 | 0.00 | 0.00 | 80 | 1018.6 |
| 20260509153024 | 10 | 20 | 8.0 | 17.7 | 0.00 | 0.00 | 0.00 | 75 | 1018.5 |
| 20260509151509 | 9 | 35 | 4.8 | 11.3 | 0.00 | 0.00 | 0.00 | 77 | 1018.4 |
| 20260509150008 | 8 | 32 | 3.2 | 9.7 | 0.00 | 0.00 | 0.00 | 78 | 1018.4 |
| 20260509144506 | 8 | 11 | 4.8 | 9.7 | 0.00 | 0.00 | 0.00 | 77 | 1018.3 |
| 20260509143010 | 9 | 30 | 4.8 | 9.7 | 0.00 | 0.00 | 0.00 | 78 | 1018.2 |
| 20260509141508 | 9 | 17 | 3.2 | 6.4 | 0.00 | 0.00 | 0.00 | 77 | 1018.1 |
| 20260509140011 | 9 | 13 | 1.6 | 6.4 | 0.00 | 0.00 | 0.00 | 77 | 1017.9 |
| 20260509134510 | 9 | 28 | 3.2 | 8.0 | 0.00 | 0.00 | 0.00 | 77 | 1017.7 |
| 20260509133008 | 8 | 1 | 0.0 | 3.2 | 0.00 | 0.00 | 0.00 | 77 | 1017.6 |
| 20260509131512 | 8 | 345 | 1.6 | 3.2 | 0.00 | 0.00 | 0.00 | 78 | 1017.4 |
| 20260509124522 | 8 | 345 | 1.6 | 6.4 | 0.00 | 0.00 | 0.00 | 73 | 1017.2 |
| 20260509123015 | 8 | 22 | 1.6 | 9.7 | 0.00 | 0.00 | 0.00 | 72 | 1017.1 |
| 20260509121510 | 8 | 261 | 3.2 | 8.0 | 0.00 | 0.00 | 0.00 | 72 | 1017.0 |
| 20260509120014 | 8 | 267 | 1.6 | 4.8 | 0.00 | 0.00 | 0.00 | 71 | 1016.7 |
| 20260509114516 | 8 | 277 | 3.2 | 8.0 | 0.00 | 0.00 | 0.00 | 71 | 1016.6 |
| 20260509111514 | 8 | 291 | 3.2 | 11.3 | 0.00 | 0.00 | 0.00 | 72 | 1016.4 |
| 20260509110020 | 8 | 296 | 4.8 | 9.7 | 0.00 | 0.00 | 0.00 | 72 | 1016.4 |
| 20260509104518 | 8 | 282 | 1.6 | 6.4 | 0.00 | 0.00 | 0.00 | 76 | 1016.3 |
| 20260509103005 | 9 | 281 | 3.2 | 8.0 | 0.00 | 0.00 | 0.00 | 75 | 1016.4 |
| 20260509101508 | 9 | 258 | 3.2 | 6.4 | 0.00 | 0.00 | 0.00 | 76 | 1016.3 |
| 20260509100008 | 9 | 287 | 3.2 | 6.4 | 0.00 | 0.00 | 0.00 | 76 | 1016.1 |
| 20260509094516 | 9 | 300 | 3.2 | 6.4 | 0.00 | 0.00 | 0.00 | 77 | 1015.9 |
| 20260509093019 | 9 | 340 | 8.0 | 17.7 | 0.00 | 0.00 | 0.00 | 77 | 1015.6 |
| 20260509091508 | 9 | 285 | 3.2 | 9.7 | 0.00 | 0.00 | 0.00 | 80 | 1015.4 |
| 20260509090009 | 10 | 347 | 6.4 | 14.5 | 0.00 | 0.00 | 0.00 | 78 | 1015.1 |
| 20260509084510 | 10 | 341 | 9.7 | 17.7 | 0.00 | 0.00 | 0.00 | 73 | 1015.0 |
| 20260509083017 | 11 | 333 | 11.3 | 19.3 | 0.00 | 0.00 | 0.00 | 70 | 1015.0 |
| 20260509081522 | 11 | 309 | 8.0 | 14.5 | 0.00 | 0.00 | 0.00 | 70 | 1014.7 |
| 20260509080005 | 11 | 298 | 6.4 | 14.5 | 0.00 | 0.00 | 0.00 | 67 | 1014.4 |
| 20260509074510 | 12 | 320 | 9.7 | 17.7 | 0.00 | 0.00 | 0.00 | 64 | 1013.9 |
| 20260509073034 | 12 | 294 | 11.3 | 20.9 | 0.00 | 0.00 | 0.00 | 62 | 1014.0 |
| 20260509071517 | 12 | 185 | 11.3 | 17.7 | 0.00 | 0.00 | 0.00 | 60 | 1013.9 |
| 20260509064508 | 12 | 271 | 11.3 | 19.3 | 0.00 | 0.00 | 0.00 | 62 | 1013.7 |
| 20260509063021 | 12 | 264 | 11.3 | 17.7 | 0.00 | 0.00 | 0.00 | 61 | 1013.7 |
| 20260509061514 | 13 | 262 | 9.7 | 16.1 | 0.00 | 0.00 | 0.00 | 57 | 1013.7 |